This is the latest recevied weather packets stored in our database for station/object SV1TQE-1. If no packets are shown the sender has not sent any weather packets the latest 10 day(s).
| Time | Temp. | Humidity | Pressure | Rain* | Wind** | Luminosity | Snow |
|---|---|---|---|---|---|---|---|
| 1787478837 | 40.56° C | 34% | 1018.1 hPa | - | - | - | - |
| 1787477940 | 40° C | 33% | 1018.1 hPa | - | - | - | - |
| 1787476993 | 40.56° C | 31% | 1018.1 hPa | - | - | - | - |
| 1787476093 | 40° C | 31% | 1018.3 hPa | - | - | - | - |
| 1787475188 | 39.44° C | 33% | 1018.3 hPa | - | - | - | - |
| 1787474287 | 39.44° C | 33% | 1018.4 hPa | - | - | - | - |
| 1787473387 | 39.44° C | 36% | 1018.2 hPa | - | - | - | - |
| 1787473341 | 39.44° C | 34% | 1018.5 hPa | - | - | - | - |
| 1787473275 | 38.89° C | 33% | 1018.3 hPa | - | - | - | - |
| 1787472371 | 38.89° C | 35% | 1018.4 hPa | - | - | - | - |
| 1787471470 | 38.33° C | 35% | 1018.4 hPa | - | - | - | - |
| 1787470570 | 38.33° C | 35% | 1018.3 hPa | - | - | - | - |
| 1787469670 | 38.89° C | 40% | 1018.3 hPa | - | - | - | - |
| 1787467870 | 37.22° C | 44% | 1018 hPa | - | - | - | - |
| 1787466970 | 37.22° C | 46% | 1018 hPa | - | - | - | - |
| 1787466070 | 36.67° C | 48% | 1017.9 hPa | - | - | - | - |
| 1787465170 | 35.56° C | 49% | 1017.9 hPa | - | - | - | - |
| 1787464269 | 35° C | 52% | 1017.8 hPa | - | - | - | - |
| 1787463369 | 34.44° C | 60% | 1017.7 hPa | - | - | - | - |
| 1787462469 | 33.33° C | 65% | 1017.7 hPa | - | - | - | - |
| 1787461572 | 32.22° C | 69% | 1017.4 hPa | - | - | - | - |
| 1787460663 | 31.11° C | 76% | 1017.4 hPa | - | - | - | - |
| 1787459763 | 30° C | 81% | 1017.1 hPa | - | - | - | - |
| 1787458863 | 28.89° C | 90% | 1017.1 hPa | - | - | - | - |
| 1787457969 | 27.78° C | 95% | 1016.9 hPa | - | - | - | - |
* Rain since midnight (hover to see other rain measurements)
** Current wind speed in m/s (hover to see current wind gust speed)